317  
ASUS42 KMHX 180125  
RWRMHX  
WEATHER ROUNDUP FOR EASTERN NORTH CAROLINA  
NATIONAL WEATHER SERVICE NEWPORT/MOREHEAD CITY NC  
900 PM EDT SAT APR 17 2021  
 
NOTE: "FAIR" INDICATES FEW OR NO CLOUDS BELOW 12,000 FEET  
WITH NO SIGNIFICANT WEATHER AND/OR S TO VISIBILITY
 
 
NCZ015>017-031-032-045>047-102-103-180200-  
NORTH COAST  
 
CITY SKY/WX TMP DP RH WIND PRES REMARKS
 
EDENTON CLOUDY 65 48 54 W7 29.86R  
ELIZABETH CITY CLOUDY 59 48 67 SE7 29.85R  
KITTY HAWK CLOUDY 54 41 60 SE3 29.85R  
MANTEO CLOUDY 55 41 58 S7 29.88R  
 

 
 
NCZ045>047-081-094-103-104-180200-  
CENTRAL COAST  
 
CITY SKY/WX TMP DP RH WIND PRES REMARKS
 
FRISCO MOCLDY 55 47 74 E6 29.86R  
 

 
 
NCZ095-097-098-100-101-180200-  
SOUTHERN COAST  
 
CITY SKY/WX TMP DP RH WIND PRES REMARKS
 
PINEY ISLAND NOT AVBL  
BEAUFORT MOCLDY 57 49 74 CALM 29.85R  
CAPE CARTERET MOCLDY 60 51 72 CALM 29.86R  
JACKSONVILLE MOCLDY 60 53 77 CALM 29.85R  
WILMINGTON MOCLDY 62 51 67 SW5 29.84R  
 

 
 
NCZ011>013-027>030-043-044-078>080-089-090>093-098-180200-  
COASTAL PLAIN  
 
CITY SKY/WX TMP DP RH WIND PRES REMARKS
 
AHOSKIE CLOUDY 56 45 65 SW3 29.86R  
ROCKY MOUNT CLOUDY 57 47 69 CALM 29.85R  
GREENVILLE PTCLDY 57 48 72 CALM 29.88S  
WASHINGTON CLOUDY 60 46 60 CALM 29.87R  
GOLDSBORO CLEAR 54 47 76 NE5 29.83R  
KINSTON PTCLDY 55 48 76 CALM 29.86R  
NEW BERN PTCLDY 58 49 72 CALM 29.87R  
HAVELOCK PTCLDY 59 50 72 CALM 29.86R  
KENANSVILLE PTCLDY 52 48 87 SE3 29.85R  
RICHLANDS MOCLDY 57 51 80 CALM 29.86R  
CLINTON PTCLDY 60 47 63 CALM 29.85R  
ELIZABETHTOWN MOCLDY 62 49 61 S6 29.85R  
WHITEVILLE MOCLDY 62 48 58 S5 29.86R  
 

 
 
AMZ130-135-150-152-154-156-158-170-250-252-270-ANZ085-086-088-633-658-670-180200-  
MARINE OBSERVATIONS  
 
STATION/POSITION TIME TEMP WIND PRES WAVE SWELL
 
AIR SEA DIR/SP/G HT/PER HT/PER  
(UTC) (F) (DEG/KT/KT) (MB) (FT/S) (FT/S)  
64 E VA BEACH 0100 55 270/ 2/ 4 1011.4  
64 E VA BEACH 0100 54 55 N/A 2/12 2/12  
DUCK PIER 0048 56 140/ 12/ 13 1010.5  
2 E DUCK 0056 57 N/A 2/12 2/12  
10 NE DUCK 0056 53 N/A 2/12 2/12  
OREGON INLET 0042 55 59 140/ 5/ 7 1011.1  
13E OREGON INLT 0056 53 N/A 2/11 2/11  
HATTERAS CG 0048 58 64 100/ 5/ 6 1011.0  
DIAMOND BUOY NOT AVBL  
CAPE LOOKOUT 0100 63 140/ 4/ 5 1011.1  
BEAUFORT LAB 0048 61 67 130/ 4/ 5 1011.1  
30 SE NEW RVR IN NOT AVBL  
30 SE NEW RVR IN 0056 65 N/A 2/11 2/11  
27 SE WRIGHTSVLE 0108 66 66 200/ 10/ 16 1010.4  
5 SE WRIGHTSVLE 0108 63 63 240/ 8/ 12 1010.9  
27 SE WRIGHTSVL 0108 66 66 200/ 10/ 16 1010.4  
FRYING PAN BUOY 0100 67 230/ 10/ 12 1010.0  
225 S CAPE HAT NOT AVBL  
41 SE CHARLESTON NOT AVBL  
 

 
 
 
CLICK HERE TO GO TO PREVIOUS BULLETINS.

The Nexlab NC Page Main Text Page